Location: Ahausen
(50.4985°N, 8.2722°E)
Time: 16:41:15
(UTC+00:00)

Transit 4A - All Passes

Search period start: 26 May 2022 00:00
Search period end: 05 June 2022 00:00
Orbit: 863 x 981 km, 66.8° (Epoch: 25 May)

Date Brightness Start Highest point End Pass type
(mag) Time Alt. Az. Time Alt. Az. Time Alt. Az.
26 May - 02:00:14 10° SSE 02:04:55 22° ESE 02:09:37 10° ENE visible
26 May - 03:44:07 10° SW 03:50:33 88° NW 03:57:01 10° NE daylight
26 May - 05:32:11 10° W 05:37:46 30° NNW 05:43:20 10° NNE daylight
26 May - 07:21:58 10° NW 07:26:17 18° N 07:30:33 10° NE daylight
26 May - 09:09:56 10° NNW 09:15:01 24° NNE 09:19:59 10° ENE daylight
26 May - 10:56:23 10° NW 11:02:41 62° NE 11:08:45 10° SE daylight
26 May - 12:43:14 10° NW 12:48:44 33° WSW 12:54:05 10° S daylight
27 May - 02:08:28 10° SSE 02:13:54 30° ESE 02:19:22 10° NE visible
27 May - 03:53:29 10° SW 03:59:53 68° NW 04:06:18 10° NE daylight
27 May - 05:42:10 10° W 05:47:26 26° NNW 05:52:40 10° NNE daylight
27 May - 07:31:49 10° NW 07:36:06 18° N 07:40:20 10° NE daylight
27 May - 09:19:17 10° NNW 09:24:41 28° NNE 09:29:58 10° E daylight
27 May - 11:05:40 10° NW 11:12:02 81° NE 11:18:11 10° SE daylight
27 May - 12:52:56 10° WNW 12:57:44 24° WSW 13:02:25 10° SSW daylight
28 May - 02:17:02 10° S 02:22:58 42° ESE 02:28:55 10° NE visible
28 May - 04:03:01 10° WSW 04:09:17 53° NW 04:15:34 10° NNE daylight
28 May - 05:52:12 10° WNW 05:57:08 22° NNW 06:02:02 10° NNE daylight
28 May - 07:41:33 10° NW 07:45:55 19° N 07:50:13 10° NE daylight
28 May - 09:28:36 10° NNW 09:34:18 33° NNE 09:39:52 10° E daylight
28 May - 11:15:00 10° NW 11:21:19 77° SW 11:27:25 10° SSE daylight
28 May - 13:02:58 10° WNW 13:06:39 16° WSW 13:10:16 10° SW daylight
29 May - 00:45:02 10° ESE 00:47:02 12° E 00:49:01 10° E visible
29 May - 02:25:51 10° SSW 02:32:06 58° ESE 02:38:22 10° NE visible
29 May - 04:12:42 10° WSW 04:18:46 42° NW 04:24:49 10° NNE daylight
29 May - 06:02:15 10° WNW 06:06:54 20° NNW 06:11:29 10° NNE daylight
29 May - 07:51:08 10° NNW 07:55:42 20° NNE 08:00:12 10° ENE daylight
29 May - 09:37:53 10° NNW 09:43:51 41° NE 09:49:40 10° ESE daylight
29 May - 11:24:21 10° NW 11:30:31 57° WSW 11:36:26 10° SSE daylight
29 May - 13:14:10 10° W 13:15:30 11° W 13:16:49 10° WSW daylight
30 May - 00:51:56 10° SE 00:55:53 17° ESE 00:59:52 10° ENE visible
30 May - 02:34:54 10° SSW 02:41:18 77° SE 02:47:44 10° NE visible
30 May - 04:22:31 10° W 04:28:19 34° NW 04:34:05 10° NNE daylight
30 May - 06:12:17 10° NW 06:16:41 19° N 06:21:03 10° NE daylight
30 May - 08:00:37 10° NNW 08:05:28 22° NNE 08:10:14 10° ENE daylight
30 May - 09:47:09 10° NNW 09:53:21 52° NE 09:59:19 10° ESE daylight
30 May - 11:33:49 10° NW 11:39:38 41° WSW 11:45:15 10° S daylight
31 May - 00:59:51 10° SSE 01:04:50 25° ESE 01:09:50 10° NE visible
31 May - 02:44:10 10° SW 02:50:35 81° NW 02:57:03 10° NE daylight
31 May - 04:32:27 10° W 04:37:55 28° NNW 04:43:22 10° NNE daylight
31 May - 06:22:13 10° NW 06:26:30 18° N 06:30:44 10° NE daylight
31 May - 08:10:01 10° NNW 08:15:11 25° NNE 08:20:14 10° E daylight
31 May - 09:56:25 10° NW 10:02:44 68° NE 10:08:49 10° SE daylight
31 May - 11:43:24 10° NW 11:48:40 29° WSW 11:53:48 10° SSW daylight
01 Jun - 01:08:12 10° S 01:13:51 34° ESE 01:19:30 10° NE visible
01 Jun - 02:53:35 10° SW 02:59:57 63° NW 03:06:19 10° NE daylight
01 Jun - 04:42:28 10° WNW 04:47:36 24° NNW 04:52:42 10° NNE daylight
01 Jun - 06:32:02 10° NW 06:36:19 18° N 06:40:32 10° NE daylight
01 Jun - 08:19:20 10° NNW 08:24:50 29° NNE 08:30:12 10° E daylight
01 Jun - 10:05:43 10° NW 10:12:04 88° ENE 10:18:11 10° SE daylight
01 Jun - 11:53:11 10° WNW 11:57:38 21° WSW 12:01:59 10° SSW daylight
02 Jun - 01:16:52 10° S 01:22:56 47° ESE 01:29:02 10° NE visible
02 Jun - 03:03:10 10° WSW 03:09:23 49° NW 03:15:35 10° NNE daylight
02 Jun - 04:52:31 10° WNW 04:57:19 21° NNW 05:02:06 10° NNE daylight
02 Jun - 06:41:42 10° NW 06:46:07 19° N 06:50:28 10° NE daylight
02 Jun - 08:28:38 10° NNW 08:34:26 36° NE 08:40:04 10° E daylight
02 Jun - 10:15:03 10° NW 10:21:19 70° WSW 10:27:21 10° SSE daylight
02 Jun - 12:03:27 10° WNW 12:06:31 14° W 12:09:34 10° SW daylight
02 Jun - 23:44:00 10° SE 23:46:54 13° E 23:49:48 10° ENE visible
03 Jun - 01:25:47 10° SSW 01:32:05 64° ESE 01:38:26 10° NE visible
03 Jun - 03:12:54 10° WSW 03:18:53 39° NW 03:24:50 10° NNE daylight
03 Jun - 05:02:34 10° WNW 05:07:06 20° NNW 05:11:35 10° NNE daylight
03 Jun - 06:51:15 10° NNW 06:55:54 20° NNE 07:00:28 10° ENE daylight
03 Jun - 08:37:55 10° NNW 08:43:57 44° NE 08:49:49 10° ESE daylight
03 Jun - 10:24:26 10° NW 10:30:28 51° WSW 10:36:18 10° S daylight
03 Jun - 23:51:25 10° SSE 23:55:47 20° ESE 00:00:11 10° ENE visible
04 Jun - 01:34:54 10° SSW 01:41:20 85° ESE 01:47:46 10° NE visible
04 Jun - 03:22:46 10° W 03:28:26 32° NNW 03:34:06 10° NNE daylight
04 Jun - 05:12:33 10° NW 05:16:53 18° N 05:21:11 10° NE daylight
04 Jun - 07:00:42 10° NNW 07:05:39 23° NNE 07:10:30 10° ENE daylight
04 Jun - 08:47:11 10° NNW 08:53:25 57° NE 08:59:25 10° SE daylight
04 Jun - 10:33:56 10° NW 10:39:34 36° WSW 10:45:02 10° S daylight
